Regional Weather Roundup
Issued by NWS Cleveland, OH

Home | Current Version | Previous Version | Text Only | Print | Product List | Glossary Off
Versions: 1 2 3 4 5 6 7 8 9 10 11 12 13 14 15 16 17 18 19 20 21 22 23 24 25 26 27 28 29 30 31 32 33 34 35 36 37 38 39 40 41 42 43 44 45 46 47 48 49 50

479
ASUS41 KCLE 191210
RWRCLE
OHIO REGIONAL WEATHER ROUNDUP
NATIONAL WEATHER SERVICE WILMINGTON, OH
700 AM EST THU JAN 19 2017

NOTE: "FAIR" INDICATES FEW OR NO CLOUDS BELOW 12,000 FEET WITH NO
SIGNIFICANT WEATHER AND/OR OBSTRUCTIONS TO VISIBILITY.

OHZ001>008-015>018-024>027-034-035-043-044-191300-
   NORTHWEST OHIO

CITY           SKY/WX    TMP DP  RH WIND       PRES   REMARKS
DEFIANCE       CLOUDY    33  31  92 SW5       30.08F WCI  29
FINDLAY        CLOUDY    36  33  89 W7        30.08S
TOLEDO EXPRESS CLOUDY    34  33  96 W8        30.08F WCI  27
TOLEDO EXEC    CLOUDY    35  34  96 W14       30.10S WCI  26
LIMA           CLOUDY    35  35 100 SW5       30.07F
$$

OHZ009>014-019>023-028>033-038-089-191300-
   NORTHEAST OHIO

CITY           SKY/WX    TMP DP  RH WIND       PRES   REMARKS
CLE-HOPKINS    CLOUDY    39  33  79 SW12      30.11R
CLE-LAKEFRONT  CLOUDY    38  34  85 SW9       30.09R
CUY CO. ARPT   CLOUDY    37  36  93 W8        30.09
LORAIN-ELYRIA  CLOUDY    36  32  85 W8        30.09S
ASHTABULA      CLOUDY    36  33  89 SW7       30.09R
AKRON-CANTON   CLOUDY    37  33  85 SW9       30.08R FOG
WOOSTER        CLOUDY    36  33  89 W7        30.09S
MANSFIELD      CLOUDY    36  35  96 SW10      30.07S
YOUNGSTOWN     CLOUDY    36  33  89 SW6       30.08R
$$

OHZ042-051>053-060>062-070>072-077>081-191300-
  SOUTHWEST OHIO

CITY           SKY/WX    TMP DP  RH WIND       PRES   REMARKS
CINC-COVINGTON CLOUDY    37  36  96 E7        30.07F
CINC-LUNKEN    FAIR      37  36  96 CALM      30.11F
HAMILTON       CLOUDY    38  37  97 E3        30.10F
DAYTON         CLOUDY    36  34  92 S5        30.08F
WRIGHT-PAT AFB CLOUDY    38  37  94 CALM      30.09S
DAYTON GENERAL CLOUDY    38  35  89 S5        30.08S
WILMINGTON     CLOUDY    37  35  92 CALM      30.09S
$$

OHZ036-037-039>041-045>050-054>059-063>069-073>076-082>088-191300-
  CENTRAL AND SOUTHEAST OHIO

CITY           SKY/WX    TMP DP  RH WIND       PRES   REMARKS
COLUMBUS       CLOUDY    40  36  86 S5        30.10F
OSU AIRPORT    CLOUDY    39  36  89 SW5       30.09F
BOLTON FIELD   CLOUDY    38  36  94 CALM      30.10F
RICKENBACK AFB   N/A     37  37  98 W3        30.10F
NEWARK         CLOUDY    39  36  89 W7        30.09F
MARION         CLOUDY    36  34  92 SW7       30.09F
LANCASTER      CLOUDY    40  37  89 S3        30.10F
ZANESVILLE     CLOUDY    39  35  86 SW6       30.11S
NEW PHILLY     CLOUDY    38  36  92 W9        30.11R
$$




USA.gov is the U.S. government's official web portal to all federal, state and local government web resources and services.